EW0451 Weather Reports


time (UTC)temp
C
wind
direction
speed
KPH
gust
KPH
rain 1hr
cm
rain 24hr
cm
rain mn
cm
humidity
%
barometer
mb
20260906220037 32 285 25.7 43.5 0.00 0.00 0.00 11 1001.6
20260906214529 33 280 32.2 45.1 0.00 0.00 0.00 12 1001.8
20260906213026 32 298 27.4 41.8 0.00 0.00 0.00 13 1002.0
20260906211526 33 285 32.2 51.5 0.00 0.00 0.00 12 1002.2
20260906210022 32 283 25.7 48.3 0.00 0.00 0.00 13 1002.4
20260906204520 32 350 20.9 30.6 0.00 0.00 0.00 14 1002.6
20260906203019 33 299 27.4 51.5 0.00 0.00 0.00 14 1002.6
20260906201517 32 286 29.0 41.8 0.00 0.00 0.00 16 1002.9
20260906200015 32 301 22.5 33.8 0.00 0.00 0.00 18 1002.9
20260906194516 31 257 9.7 45.1 0.00 0.00 0.00 19 1003.3
20260906193010 31 292 14.5 35.4 0.00 0.00 0.00 19 1003.6
20260906191507 31 255 25.7 35.4 0.00 0.00 0.00 19 1003.9
20260906190003 31 287 19.3 32.2 0.00 0.00 0.00 20 1004.3
20260906184602 30 284 8.0 24.1 0.00 0.00 0.00 23 1004.4
20260906183106 30 46 8.0 24.1 0.00 0.00 0.00 24 1004.7
20260906181555 30 312 12.9 25.7 0.00 0.00 0.00 23 1005.0
20260906180050 29 6 16.1 24.1 0.00 0.00 0.00 26 1005.5
20260906174549 28 302 12.9 24.1 0.00 0.00 0.00 26 1005.8
20260906173052 28 297 3.2 24.1 0.00 0.00 0.00 30 1006.1
20260906171545 28 297 14.5 19.3 0.00 0.00 0.00 28 1006.4
20260906170036 27 291 4.8 24.1 0.00 0.00 0.00 30 1006.5
20260906164533 27 271 11.3 19.3 0.00 0.00 0.00 32 1006.7
20260906163030 26 318 1.6 19.3 0.00 0.00 0.00 34 1006.8
20260906161527 25 323 6.4 17.7 0.00 0.00 0.00 39 1006.8
20260906160025 24 5 11.3 20.9 0.00 0.00 0.00 42 1006.9
20260906154520 24 319 9.7 16.1 0.00 0.00 0.00 44 1007.1
20260906153022 23 312 9.7 20.9 0.00 0.00 0.00 46 1007.1
20260906151512 22 278 14.5 22.5 0.00 0.00 0.00 47 1007.1
20260906150014 21 290 16.1 22.5 0.00 0.00 0.00 52 1007.3
20260906144513 20 321 16.1 20.9 0.00 0.00 0.00 52 1007.1
20260906143009 20 5 12.9 20.9 0.00 0.00 0.00 58 1007.3
20260906141503 18 331 11.3 20.9 0.00 0.00 0.00 64 1007.2
20260906140100 17 294 9.7 14.5 0.00 0.00 0.00 63 1007.1
20260906134559 17 310 9.7 12.9 0.00 0.00 0.00 61 1007.0
20260906133117 17 300 4.8 9.7 0.00 0.00 0.00 63 1006.9
20260906131602 16 318 3.2 8.0 0.00 0.00 0.00 65 1006.7
20260906130111 -17 0.0 0.0 0.00 0.00 0.00 1006.8
20260906124556 -17 0.0 0.0 0.00 0.00 0.00 1006.6
20260906123051 -17 0.0 0.0 0.00 0.00 0.00 1006.5
20260906121548 -17 0.0 0.0 0.00 0.00 0.00 1006.5
20260906120047 -17 0.0 0.0 0.00 0.00 0.00 1006.5
20260906114538 -17 0.0 0.0 0.00 0.00 0.00 1006.6
20260906113039 -17 0.0 0.0 0.00 0.00 0.00 1006.6
20260906111530 -17 0.0 0.0 0.00 0.00 0.00 1006.8
20260906110026 -17 0.0 0.0 0.00 0.00 0.00 1006.8
20260906104521 -17 0.0 0.0 0.00 0.00 0.00 1006.9
20260906103019 -17 0.0 0.0 0.00 0.00 0.00 1006.9
20260906101521 -17 0.0 0.0 0.00 0.00 0.00 1006.9
20260906100017 -17 0.0 0.0 0.00 0.00 0.00 1007.0
20260906094513 -17 0.0 0.0 0.00 0.00 0.00 1006.8
20260906093023 16 267 0.0 0.0 0.00 0.00 0.00 61 1006.3
20260906091507 17 246 0.0 0.0 0.00 0.00 0.00 64 1006.4
20260906090012 17 291 0.0 0.0 0.00 0.00 0.00 59 1006.3
20260906084504 17 74 0.0 0.0 0.00 0.00 0.00 63 1006.3
20260906083102 17 74 0.0 0.0 0.00 0.00 0.00 56 1006.5
20260906081600 18 74 0.0 0.0 0.00 0.00 0.00 53 1006.5
20260906080105 18 74 0.0 0.0 0.00 0.00 0.00 54 1006.6
20260906074556 18 73 0.0 0.0 0.00 0.00 0.00 50 1006.7
20260906073051 19 287 0.0 1.6 0.00 0.00 0.00 49 1006.8
20260906071549 18 293 0.0 0.0 0.00 0.00 0.00 48 1006.8
20260906070047 19 293 0.0 0.0 0.00 0.00 0.00 47 1006.7
20260906064545 19 170 0.0 0.0 0.00 0.00 0.00 46 1006.8
20260906063043 20 199 0.0 0.0 0.00 0.00 0.00 45 1007.0
20260906061547 20 210 1.6 6.4 0.00 0.00 0.00 45 1007.1
20260906060039 20 208 0.0 4.8 0.00 0.00 0.00 46 1007.2
20260906054542 20 194 0.0 8.0 0.00 0.00 0.00 46 1007.2
20260906053034 20 197 4.8 11.3 0.00 0.00 0.00 45 1007.1
20260906051538 20 188 1.6 11.3 0.00 0.00 0.00 44 1007.3
20260906050033 20 221 0.0 1.6 0.00 0.00 0.00 43 1007.3
20260906044532 21 201 0.0 19.3 0.00 0.00 0.00 41 1007.3
20260906043034 21 157 6.4 12.9 0.00 0.00 0.00 41 1007.3
20260906041544 21 293 0.0 11.3 0.00 0.00 0.00 40 1007.4
20260906040027 22 188 0.0 11.3 0.00 0.00 0.00 39 1007.2
20260906034525 22 146 3.2 14.5 0.00 0.00 0.00 37 1007.0
20260906033025 23 266 9.7 19.3 0.00 0.00 0.00 36 1007.0
20260906031525 23 274 3.2 14.5 0.00 0.00 0.00 34 1006.9
20260906030032 23 283 8.0 17.7 0.00 0.00 0.00 32 1006.6
20260906024523 23 240 4.8 16.1 0.00 0.00 0.00 31 1006.3
20260906023024 24 278 8.0 17.7 0.00 0.00 0.00 29 1006.2
20260906021523 24 276 0.0 8.0 0.00 0.00 0.00 29 1006.3
20260906020022 24 276 4.8 9.7 0.00 0.00 0.00 28 1006.0
20260906014538 25 263 6.4 12.9 0.00 0.00 0.00 27 1005.9
20260906013024 26 272 9.7 14.5 0.00 0.00 0.00 25 1005.6
20260906011520 27 248 6.4 12.9 0.00 0.00 0.00 25 1005.6
20260906010041 28 262 14.5 22.5 0.00 0.00 0.00 23 1005.5
20260906004520 28 294 12.9 24.1 0.00 0.00 0.00 23 1005.6
20260906003018 28 321 11.3 24.1 0.00 0.00 0.00 22 1005.6
20260906001525 29 249 17.7 24.1 0.00 0.00 0.00 22 1005.5
20260906000017 29 262 14.5 25.7 0.00 0.00 0.00 22 1005.4
20260905234517 30 321 11.3 24.1 0.00 0.00 0.00 21 1005.2
20260905233015 30 188 16.1 22.5 0.00 0.00 0.00 21 1005.2
20260905231525 30 100 12.9 27.4 0.00 0.00 0.00 20 1005.2
20260905230013 31 177 0.0 8.0 0.00 0.00 0.00 19 1005.1
20260905224518 31 264 1.6 6.4 0.00 0.00 0.00 19 1005.2
20260905223020 31 233 0.0 9.7 0.00 0.00 0.00 19 1005.2
20260905221511 31 264 11.3 20.9 0.00 0.00 0.00 19 1005.4